Location: Unnamed
(51.5169°N, 0.1311°W)
Time: 05:56:31
(UTC+01:00)

Vanguard 1 - Pass Details

Date: 16 August 2024
Orbit: 649 x 3825 km, 34.2° (Epoch: 16 September)

Event Time Altitude Azimuth Distance (km) Brightness Sun altitude
Rises 03:25:06 0° 265° (W) 5,378 13.5 -18.1°
Enters shadow 03:26:01 - 263° (W) 5,222 13.4 -18.0°
Exits shadow 03:30:14 13° 249° (WSW) 4,663 13.0 -17.6°
Maximum altitude 03:40:07 27° 204° (SSW) 4,582 12.9 -16.7°
Drops below altitude 10° 03:55:48 10° 157° (SSE) 6,763 14.1 -15.1°
Sets 04:02:46 0° 147° (SSE) 7,942 14.6 -14.3°
